This is the latest recevied weather packets stored in our database for station/object DC1NF-7. If no packets are shown the sender has not sent any weather packets the latest 1 day(s).
| Time | Temp. | Humidity | Pressure | Rain* | Wind** | Luminosity | Snow |
|---|---|---|---|---|---|---|---|
| 1778005537 | 13.89° C | 94% | 1007.1 hPa | 0 mm | 0.45 m/s, 237° | 6 W/m² | - |
| 1778004936 | 13.89° C | 94% | 1007.1 hPa | 0 mm | 0.89 m/s, 235° | 9 W/m² | - |
| 1778004329 | 13.89° C | 94% | 1007.2 hPa | 0 mm | 0.89 m/s, 218° | 7 W/m² | - |
| 1778003727 | 13.89° C | 93% | 1007.1 hPa | 0 mm | 1.34 m/s, 217° | 14 W/m² | - |
| 1778003120 | 13.89° C | 93% | 1007 hPa | 0 mm | 0.89 m/s, 255° | 30 W/m² | - |
| 1778002517 | 13.89° C | 93% | 1006.9 hPa | 0 mm | 1.34 m/s, 226° | 44 W/m² | - |
| 1778001974 | 13.89° C | 92% | 1006.8 hPa | 0 mm | 1.79 m/s, 230° | 51 W/m² | - |
| 1778001371 | 13.89° C | 92% | 1006.7 hPa | 0.51 mm | 1.34 m/s, 198° | 51 W/m² | - |
| 1778000770 | 13.89° C | 92% | 1006.7 hPa | 1.27 mm | 1.34 m/s, 241° | 51 W/m² | - |
| 1778000165 | 13.89° C | 93% | 1006.7 hPa | 3.56 mm | 0.89 m/s, 233° | 52 W/m² | - |
| 1777999559 | 13.89° C | 93% | 1006.9 hPa | 6.35 mm | 1.34 m/s, 229° | 55 W/m² | - |
| 1777998955 | 13.33° C | 94% | 1006.8 hPa | 6.86 mm | 2.24 m/s, 229° | 65 W/m² | - |
| 1777998352 | 13.33° C | 93% | 1007 hPa | 6.86 mm | 2.68 m/s, 226° | 42 W/m² | - |
| 1777997752 | 13.89° C | 93% | 1007.3 hPa | 6.35 mm | 2.68 m/s, 222° | 27 W/m² | - |
| 1777997149 | 13.89° C | 93% | 1007.5 hPa | 5.59 mm | 3.13 m/s, 240° | 23 W/m² | - |
| 1777996545 | 14.44° C | 92% | 1007.5 hPa | 3.3 mm | 4.02 m/s, 252° | 12 W/m² | - |
| 1777995942 | 15° C | 90% | 1007.5 hPa | 0.51 mm | 6.71 m/s, 193° | 7 W/m² | - |
| 1777995338 | 19.44° C | 66% | 1006.5 hPa | 0 mm | 4.02 m/s, 208° | 20 W/m² | - |
| 1777994731 | 20.56° C | 61% | 1005.9 hPa | 0 mm | 1.34 m/s, 242° | 43 W/m² | - |
| 1777994130 | 21.11° C | 57% | 1005.5 hPa | 0 mm | 1.79 m/s, 240° | 72 W/m² | - |
| 1777993526 | 21.67° C | 53% | 1005.5 hPa | 0 mm | 0.45 m/s, 229° | 54 W/m² | - |
| 1777992920 | 21.67° C | 51% | 1005.4 hPa | 0 mm | 0.89 m/s, 164° | 113 W/m² | - |
| 1777992317 | 22.22° C | 51% | 1005.4 hPa | 0 mm | 0.45 m/s, 128° | 125 W/m² | - |
| 1777991776 | 22.22° C | 50% | 1005.5 hPa | 0 mm | 0.45 m/s, 161° | 176 W/m² | - |
| 1777991169 | 22.22° C | 51% | 1005.6 hPa | 0 mm | 0.89 m/s, 124° | 218 W/m² | - |
* Rain latest hour (hover to see other rain measurements)
** Current wind speed in m/s (hover to see current wind gust speed)